Theta_e
304 304 304 304 304 304 305 305 305 305 306 305 306 308 310 311 309 307 309 312 307 300 300 302 302 298 298 296 291 296 296 296 295 290 289 290 290 294 293 295 292 290 289 288 289 287 284 301 300 293 298 302 301 300
303 303 304 304 304 304 304 304 305 305 305 306 306 307 310 310 310 307 303 308 307 300 300 306 306 307 305 301 296 298 295 295 296 291 291 292 291 294 293 288 297 290 294 290 291 292 301 302 301 303 303 300 299 299
303 303 303 304 304 304 304 304 304 304 305 305 306 306 307 310 310 307 305 303 302 296 297 301 301 307 309 307 307 295 297 298 298 301 295 293 290 295 290 291 293 297 299 294 295 297 299 301 303 303 302 300 301 300
304 303 303 303 303 304 304 304 304 304 304 305 306 306 306 308 310 308 302 304 303 297 291 297 308 303 309 309 306 305 302 302 302 299 292 291 291 298 294 295 294 296 298 295 295 297 299 301 302 301 301 301 299 300
303 303 303 303 303 303 303 303 304 304 304 305 306 307 306 308 310 309 306 304 305 300 292 295 303 306 308 307 304 303 301 299 295 292 290 291 296 296 297 297 294 298 296 294 293 297 297 298 301 302 299 298 301 299
303 304 303 303 303 303 303 303 304 303 303 305 307 307 306 308 309 303 296 303 306 305 294 292 302 302 304 304 300 300 299 298 294 291 292 296 301 296 292 291 298 299 301 301 297 300 300 302 301 301 300 300 299 297
301 303 304 304 303 303 303 303 304 303 303 305 307 307 307 308 306 299 298 304 306 304 296 293 295 302 303 302 300 298 299 295 294 291 292 294 297 298 294 291 297 299 300 300 301 300 297 298 297 300 301 301 299 298
300 301 303 304 304 303 303 303 304 304 304 305 306 307 307 306 303 300 303 305 306 300 299 291 293 296 303 297 293 297 292 293 292 292 294 295 298 297 291 298 300 299 300 299 299 300 299 300 300 299 300 297 296 296
300 301 302 304 304 304 303 303 303 304 304 305 306 306 304 301 297 298 306 304 304 298 292 291 290 290 300 296 296 294 295 288 295 290 293 296 294 291 296 297 297 298 298 297 299 299 298 298 297 298 296 295 295 294
300 301 302 303 304 304 304 303 304 304 305 306 304 298 292 298 306 305 298 292 293 293 292 289 295 290 297 297 292 291 293 291 288 291 295 290 292 299 299 300 300 299 299 299 296 295 296 296 297 295 295 295 295 294
299 300 301 302 303 304 304 304 304 305 305 302 296 292 299 305 299 294 289 290 289 288 292 292 293 291 299 292 290 293 288 290 288 290 290 291 292 297 300 299 300 300 300 299 299 298 298 299 296 294 294 295 295 294
299 300 300 301 303 303 304 304 305 303 300 299 298 301 299 294 292 289 288 291 289 288 294 292 294 296 296 299 293 292 289 290 286 295 291 289 293 297 298 297 298 300 298 298 298 298 299 298 296 295 295 294 295 294
299 300 301 301 302 303 304 304 304 303 302 300 294 291 291 289 285 285 284 288 288 293 296 295 291 293 294 293 290 289 288 289 297 291 290 291 295 297 297 298 298 298 298 297 298 299 299 296 296 296 295 294 294 294
299 300 301 302 302 303 304 304 303 303 300 291 289 285 286 286 289 291 292 292 295 296 295 292 290 290 291 287 289 288 294 295 289 287 287 292 296 297 298 298 297 296 297 298 299 297 296 295 295 296 296 296 294 293
300 301 301 302 302 303 303 304 304 303 296 289 290 287 290 295 297 298 298 298 298 299 295 293 291 290 290 289 293 292 290 288 289 287 291 295 298 298 297 296 296 296 297 297 296 295 295 295 295 295 297 297 295 294
300 300 301 303 303 303 302 303 302 300 295 291 290 291 296 294 295 297 298 296 299 298 297 294 291 290 290 292 290 289 289 287 290 294 296 298 298 298 297 296 296 297 297 296 296 296 295 295 294 295 297 297 296 295
300 298 303 303 303 303 303 299 298 293 290 289 291 297 297 294 292 298 299 298 300 295 290 292 288 288 295 290 289 295 291 295 296 297 298 300 299 297 297 296 296 296 295 295 295 295 295 296 295 295 294 296 297 297
298 303 303 303 303 300 299 298 294 291 288 292 293 298 298 299 300 299 300 300 298 294 294 291 296 291 290 288 291 296 298 298 299 299 298 299 298 297 296 295 295 295 295 295 295 295 295 294 294 294 295 296 296 296
301 303 303 303 301 297 293 293 293 289 293 296 299 299 300 301 301 302 302 301 300 299 296 296 293 292 293 297 297 297 297 297 296 297 298 298 298 297 296 296 296 295 295 294 294 294 295 296 295 295 294 295 294 294
302 302 302 301 302 295 292 292 298 294 294 296 298 298 299 299 300 299 301 299 297 295 294 293 294 297 298 299 301 300 299 299 297 294 294 296 297 297 296 296 295 296 295 295 294 291 293 293 294 295 294 294 294 293
301 301 301 302 298 297 296 294 294 296 297 296 299 300 296 298 297 297 296 299 292 293 295 298 299 301 302 302 302 301 300 299 297 296 294 293 295 296 296 296 296 295 294 293 293 293 292 292 293 295 294 294 295 295
300 302 300 299 295 295 295 299 295 297 296 297 297 298 295 293 294 295 295 292 291 297 300 300 300 300 300 299 300 302 300 299 298 295 294 293 294 294 294 295 295 294 293 293 293 293 293 293 293 294 294 293 293 295
301 300 298 296 292 291 291 301 293 295 291 293 296 292 292 291 294 297 291 294 296 302 301 302 302 302 300 301 301 300 299 298 297 296 296 296 296 297 296 295 295 294 293 294 295 294 293 291 293 293 293 293 292 292
300 297 293 293 293 290 296 293 296 294 294 292 289 289 290 291 294 291 290 294 299 302 301 301 301 299 299 299 297 297 298 299 297 297 297 297 295 295 296 295 296 296 296 296 295 295 294 293 291 293 292 291 290 291
289 291 292 287 295 292 290 290 290 290 288 291 290 289 292 294 290 290 290 294 298 299 300 300 299 298 297 297 297 298 300 299 297 296 297 297 296 296 295 296 296 295 296 294 293 293 293 293 292 292 291 290 288 289
287 291 290 290 291 290 291 288 288 290 291 290 291 294 295 292 289 288 292 297 299 301 299 299 298 297 297 298 297 297 298 300 299 297 297 298 298 296 295 295 293 292 295 294 293 291 291 291 290 289 289 289 286 287
285 288 293 297 296 294 293 296 296 294 290 289 291 292 291 288 287 291 297 301 300 301 302 302 302 299 297 298 299 300 301 301 300 298 299 299 298 297 295 294 291 292 293 292 291 289 288 288 287 287 287 288 287 287
293 294 290 293 292 297 291 292 291 290 292 296 295 290 288 287 286 293 296 302 303 303 302 302 303 301 300 300 300 300 299 299 299 298 298 297 298 297 296 295 294 287 293 291 290 288 287 287 286 286 286 286 285 287
292 297 296 292 292 293 291 289 289 292 294 293 292 289 287 289 291 296 298 301 302 301 299 298 299 301 300 300 300 299 299 298 295 293 292 292 292 293 296 296 295 295 294 290 282 284 286 286 286 285 286 285 285 286
292 298 293 292 289 288 289 290 291 292 293 295 294 291 290 292 294 298 299 300 299 298 299 299 299 298 296 296 296 297 299 299 299 297 295 293 293 295 295 294 293 291 290 289 288 287 284 286 284 286 284 284 283 283
297 297 293 292 288 289 290 291 292 291 291 293 296 292 289 290 294 297 297 298 298 299 298 297 297 298 297 296 296 294 293 297 297 297 297 296 295 294 293 291 290 290 289 288 287 285 285 284 283 282 281 281 280 280
294 292 291 287 287 290 291 290 289 288 289 289 289 291 292 291 289 295 296 296 297 297 292 296 297 297 299 298 297 296 291 295 295 295 295 294 292 291 290 290 289 289 288 287 286 284 283 282 281 280 279 279 278 278
289 292 292 289 287 288 291 292 290 288 289 288 288 289 291 290 287 293 297 298 299 299 298 298 298 298 297 295 293 291 288 286 283 282 282 282 282 285 288 288 288 288 287 286 285 284 282 280 279 278 278 277 277 276
Wind_Speed
16 15 15 15 14 14 14 15 14 13 13 13 13 14 9 7 7 5 2 6 4 4 9 10 9 9 5 4 5 5 4 1 2 4 3 2 5 4 5 8 6 9 4 5 8 7 6 12 10 8 9 12 16 18
15 14 14 15 15 14 14 14 14 13 13 12 13 13 12 8 9 6 1 3 4 1 7 11 13 15 12 8 3 4 2 3 2 2 1 4 4 5 8 4 2 4 7 4 4 3 4 6 2 4 9 13 15 17
16 15 14 14 14 14 13 13 13 13 13 13 12 12 12 9 6 11 2 3 2 2 8 8 4 9 11 13 7 4 3 3 1 3 0 2 7 8 4 4 3 3 4 5 3 5 4 6 4 14 14 14 16 18
16 16 14 15 14 14 14 13 13 13 12 13 14 12 12 12 7 13 3 4 1 1 3 2 5 3 5 10 13 13 3 3 2 3 0 3 5 7 5 7 9 8 5 7 10 13 11 10 16 16 16 17 18 19
16 15 15 14 14 14 14 14 12 11 12 14 15 14 13 12 9 8 2 3 2 3 3 7 15 12 14 10 11 8 6 4 2 2 2 5 8 7 7 10 9 8 4 3 3 8 8 13 15 16 16 17 18 19
17 15 14 13 14 14 14 14 13 11 13 14 16 13 11 12 6 3 1 4 5 1 1 5 2 6 9 9 9 12 7 3 2 1 3 5 11 2 4 3 5 3 5 5 5 8 9 12 14 16 15 17 17 19
17 17 16 14 14 14 14 13 13 12 13 14 16 10 7 10 4 2 1 2 11 5 3 5 2 7 11 9 4 3 4 2 2 1 4 8 6 4 4 8 5 2 6 7 6 7 11 12 12 14 14 15 16 18
17 17 16 15 14 13 13 13 13 11 12 13 13 6 9 9 8 2 2 10 7 1 4 3 5 6 12 4 4 3 3 2 4 2 3 5 3 4 5 5 6 6 7 6 7 9 9 11 12 13 14 16 18 17
16 17 16 16 13 12 12 12 12 11 12 12 13 9 3 1 2 3 11 8 3 1 2 3 4 1 3 3 3 2 4 3 4 4 3 1 4 6 2 6 2 6 5 8 9 10 11 12 14 15 17 18 18 18
16 16 15 16 12 11 10 10 11 10 11 15 3 2 1 1 18 14 3 2 1 0 1 4 6 5 2 4 2 3 3 2 3 5 4 4 6 4 3 5 7 6 7 8 9 10 12 12 13 15 16 16 15 15
15 15 13 14 14 11 10 8 9 7 1 0 2 2 1 9 1 1 2 4 4 5 6 5 7 5 5 1 2 3 1 2 3 4 5 4 3 5 5 6 5 4 6 7 7 9 10 11 13 13 14 16 15 17
15 15 14 14 14 11 10 8 5 1 2 4 4 2 2 1 2 3 4 4 5 4 5 3 1 2 3 2 1 2 2 3 4 6 5 2 4 6 6 3 1 6 8 8 8 8 10 12 12 11 12 13 14 14
15 15 15 13 13 10 9 5 1 13 7 2 2 3 3 3 3 6 7 5 5 4 3 3 2 1 3 1 1 3 5 5 5 4 2 4 6 5 3 1 6 8 7 8 8 11 10 11 10 10 11 11 12 12
15 15 13 11 10 9 7 6 18 7 1 1 4 4 4 5 6 6 2 3 3 3 5 3 2 2 2 3 3 4 4 4 3 2 3 6 6 6 6 5 7 8 8 7 10 9 10 9 9 11 11 9 11 12
15 13 13 13 11 7 1 3 14 2 1 2 3 5 8 5 5 5 4 6 6 6 4 3 2 3 4 5 5 3 4 4 5 3 4 5 7 8 8 7 7 8 7 9 9 9 9 9 10 10 10 8 11 11
13 12 7 10 7 9 7 5 2 1 1 2 4 6 6 6 4 5 5 6 6 4 3 1 2 3 5 4 4 3 4 4 4 5 6 6 8 9 7 7 7 7 8 8 9 9 10 10 10 11 10 9 10 11
10 4 2 9 8 8 9 1 1 3 3 3 5 7 7 4 5 3 5 4 4 4 2 2 3 4 2 3 3 1 3 7 8 8 8 8 8 9 8 8 8 7 7 8 8 9 10 10 10 10 12 11 9 10
4 2 7 11 7 5 1 1 1 2 5 6 6 4 4 1 2 4 6 6 3 3 1 2 3 4 2 3 4 6 8 7 8 9 8 9 8 8 8 8 7 8 8 7 7 8 10 10 9 8 10 11 8 10
4 3 9 14 4 3 2 3 2 3 7 6 7 4 1 1 4 7 6 5 4 2 3 3 4 3 1 2 7 8 8 9 7 8 9 10 8 8 7 7 6 6 6 7 8 6 7 9 9 7 9 9 8 9
5 8 15 9 1 2 3 2 2 5 3 4 3 2 1 3 3 4 5 4 3 1 4 3 1 1 2 1 2 8 9 10 9 8 8 7 7 7 6 5 4 3 4 5 7 8 7 8 8 8 9 9 8 10
5 7 10 2 1 3 3 3 4 3 4 2 1 1 2 1 2 2 3 3 2 3 2 2 2 4 3 7 8 8 8 8 9 8 8 7 7 7 7 5 5 5 5 5 6 7 8 8 8 7 9 10 9 9
3 5 2 1 3 3 3 3 2 2 3 2 1 1 1 1 1 2 3 1 2 5 1 1 5 6 7 7 7 11 11 13 12 9 9 7 7 6 5 5 6 6 6 6 7 7 8 8 8 9 10 11 11 10
7 1 3 3 3 2 4 3 4 3 2 1 1 1 1 1 2 1 1 2 3 2 5 3 6 6 10 10 10 10 9 10 8 7 6 7 6 6 7 7 7 7 7 7 7 7 7 8 9 10 10 10 11 11
3 4 5 5 6 4 5 4 1 2 2 2 2 2 3 2 3 1 1 1 3 7 5 7 7 7 8 9 8 7 7 8 7 6 6 7 7 7 7 7 8 7 7 8 8 8 8 8 9 9 10 11 12 11
3 4 3 4 4 4 5 5 5 3 5 6 5 3 4 4 3 3 3 4 5 5 6 6 7 8 7 7 7 7 7 6 7 7 6 6 6 6 6 7 8 8 8 8 8 9 9 9 9 10 11 10 12 13
4 5 5 5 3 4 4 5 5 7 5 4 2 2 4 3 3 2 1 3 5 4 5 5 5 6 8 7 7 5 5 7 7 7 6 7 7 6 5 8 7 9 8 8 8 10 10 10 10 12 11 12 10 13
3 6 5 4 3 3 3 3 1 2 4 3 3 4 3 3 3 2 2 2 3 4 4 3 3 7 7 7 6 7 8 8 10 9 9 9 9 9 10 9 9 7 8 9 9 10 10 10 10 11 11 10 12 12
3 3 5 6 4 0 2 4 2 0 2 2 2 2 2 3 2 1 2 4 6 4 3 4 4 7 9 8 8 8 9 8 8 9 8 8 7 7 9 7 7 5 6 7 8 9 9 8 9 10 11 11 11 11
4 3 3 6 2 0 3 3 3 3 3 3 1 3 3 2 1 3 1 2 3 4 4 7 8 8 7 7 8 7 6 5 7 6 5 7 7 6 5 5 5 4 5 8 6 6 6 6 8 8 12 11 11 11
3 3 3 4 3 2 2 2 3 3 4 3 4 5 4 2 3 6 2 2 4 5 5 6 6 7 8 8 8 7 6 5 3 3 6 6 6 6 7 7 6 7 6 7 8 8 3 6 5 9 10 10 10 10
3 2 2 4 3 2 2 2 2 2 3 6 5 7 6 3 1 3 5 4 6 5 7 8 8 8 8 9 7 7 7 7 9 10 9 7 7 7 6 5 6 6 7 8 9 9 9 9 9 9 11 12 13 12
1 3 4 4 2 3 2 1 1 1 1 2 2 1 5 3 3 1 4 6 5 8 6 7 8 7 8 8 9 11 12 9 9 7 9 7 6 6 6 5 5 4 5 8 8 9 10 10 9 10 9 12 12 13
1 2 6 4 3 4 5 5 3 3 2 2 1 1 1 3 3 1 4 5 6 5 8 9 9 10 14 15 13 12 12 11 13 11 13 12 11 10 7 6 4 5 6 7 7 8 10 9 8 9 9 10 10 11
Wind_Direction
307 303 301 299 299 301 298 295 295 299 305 312 312 313 299 302 217 242 345 349 313 300 300 308 268 255 233 257 256 8 253 265 150 229 232 289 284 290 279 151 189 183 215 204 225 231 246 4 353 345 358 338 342 335
305 305 300 298 298 300 300 296 294 302 313 300 308 304 317 286 209 206 246 34 6 332 300 320 284 279 260 253 240 237 62 261 118 227 246 299 312 310 324 290 33 225 207 178 213 289 61 248 130 30 353 343 333 326
302 300 300 300 301 299 299 297 299 300 304 313 298 300 297 289 237 183 176 121 68 322 276 238 220 252 211 209 206 238 210 311 198 34 85 290 274 288 291 303 309 262 59 255 268 68 348 280 14 6 349 337 335 332
301 294 299 299 296 295 296 296 298 300 297 301 304 293 294 294 240 185 171 165 143 109 285 320 198 106 195 166 187 212 215 34 77 82 36 260 249 281 300 286 274 267 248 279 264 57 309 354 357 345 331 345 332 331
308 299 292 291 293 294 295 294 293 298 299 300 299 290 287 284 238 203 150 185 264 271 306 294 304 270 186 183 191 191 216 157 132 192 238 247 266 314 288 279 285 352 347 360 339 15 349 342 323 332 343 340 338 337
312 297 290 288 285 286 287 291 291 293 295 298 304 292 282 292 179 104 183 186 183 154 256 290 294 169 150 162 165 202 209 158 128 188 240 249 262 240 286 281 59 348 57 50 30 8 332 299 341 345 350 341 342 340
305 311 298 287 285 285 286 290 293 292 296 299 306 284 284 289 156 179 213 88 149 153 231 268 181 147 148 133 124 79 117 128 124 211 237 261 276 261 269 266 96 309 49 31 15 307 329 343 344 354 349 340 353 337
309 305 310 299 287 280 281 285 290 288 300 301 307 282 310 127 116 95 48 119 137 237 273 268 275 162 173 173 131 127 146 149 175 237 244 255 277 219 254 8 95 56 21 358 336 350 351 353 350 352 350 357 343 350
308 304 304 306 296 290 276 279 285 289 299 297 304 122 147 83 152 120 108 55 46 318 254 230 260 330 147 98 106 174 170 173 177 221 246 268 253 227 260 123 44 46 356 356 355 358 360 352 359 360 2 353 360 345
307 306 302 309 298 302 278 275 281 289 297 291 203 169 119 11 121 117 99 135 182 232 278 268 248 250 253 142 128 146 211 221 214 206 162 221 257 261 154 67 53 10 15 9 357 357 356 356 6 8 4 6 355 355
304 306 306 310 309 304 303 264 276 308 311 66 87 70 360 135 117 58 144 201 166 217 200 233 238 221 349 229 124 219 194 248 235 177 217 213 186 130 94 74 42 331 29 12 2 0 2 17 21 6 10 8 1 2
302 302 302 299 303 301 303 272 262 247 13 81 92 84 52 225 199 196 200 182 214 245 178 215 76 32 61 343 142 195 250 229 255 182 224 204 100 115 86 66 307 45 28 15 11 9 27 39 31 18 17 13 7 1
300 297 293 287 297 296 301 280 122 123 144 92 88 161 212 152 199 223 190 185 190 205 129 109 115 68 136 65 190 238 227 228 172 215 159 81 115 111 134 180 67 54 31 30 20 35 39 47 35 25 19 25 14 2
297 296 292 290 298 290 298 199 148 152 115 191 196 178 221 191 228 217 57 84 93 130 118 116 130 168 170 181 229 244 239 215 233 195 75 130 145 123 93 57 59 52 42 29 52 45 47 41 32 28 22 30 21 1
295 290 292 278 265 247 273 196 164 172 163 214 243 232 217 223 254 117 126 114 121 130 145 161 158 201 184 237 216 233 240 216 66 59 107 129 106 94 79 64 60 55 50 52 49 48 45 29 30 28 25 24 34 8
295 292 242 210 207 199 192 180 134 71 280 250 241 263 247 279 237 160 169 105 111 115 118 217 231 213 224 246 240 245 345 70 112 133 141 130 101 93 91 79 67 63 62 61 54 43 34 34 26 22 24 11 39 23
284 245 208 189 179 179 168 127 137 178 216 241 241 232 255 131 272 25 75 104 102 137 180 210 250 232 233 224 211 219 75 124 128 117 104 104 112 110 103 96 84 72 60 46 53 53 33 24 30 27 18 1 39 25
240 216 191 164 142 100 99 67 171 190 243 240 258 313 232 189 129 118 113 131 138 159 201 242 286 253 280 320 93 121 113 96 99 103 109 103 104 106 102 96 89 77 67 41 21 46 45 21 25 22 11 4 24 27
233 183 170 146 122 103 163 153 200 248 235 263 244 230 174 191 106 101 113 98 100 82 292 246 253 310 28 61 127 122 118 115 114 104 100 100 102 103 104 97 86 79 83 67 28 26 42 36 6 22 14 7 8 28
244 161 150 146 114 175 181 167 233 261 274 273 235 257 21 106 81 124 115 112 100 226 247 233 44 308 87 206 136 110 105 110 119 127 129 123 114 106 88 87 86 81 64 87 91 37 37 31 4 22 19 10 1 29
156 137 134 153 38 292 274 178 219 266 315 305 353 108 87 123 168 121 89 63 40 266 299 66 252 177 93 57 80 101 123 141 135 131 127 128 123 132 141 144 115 77 49 38 32 48 42 32 359 13 21 13 356 32
97 155 109 57 231 219 259 242 268 288 254 287 335 307 235 184 148 111 108 120 231 268 26 269 228 111 102 101 104 89 86 85 89 90 89 140 131 105 77 61 73 87 69 42 34 27 37 25 13 5 26 13 2 17
143 116 153 185 218 189 273 243 220 220 268 150 79 307 162 130 97 100 226 217 245 231 232 215 115 107 98 93 101 104 119 126 114 111 102 96 95 87 82 71 53 32 46 44 37 32 29 32 22 7 22 23 7 3
163 188 202 196 200 224 182 190 218 205 263 147 205 188 143 139 158 245 265 275 186 209 166 142 127 122 118 143 126 139 128 96 102 106 111 105 91 75 70 67 65 51 25 44 26 20 22 16 23 13 17 23 12 4
153 215 187 254 220 211 196 177 180 181 252 193 205 144 179 165 193 204 203 189 183 154 150 159 146 143 155 122 140 113 124 132 108 89 78 91 117 120 111 103 78 48 32 27 26 13 15 11 15 10 12 24 21 5
220 189 205 209 208 218 217 188 203 208 208 189 147 178 178 198 217 118 83 170 133 154 156 151 161 150 128 127 107 143 129 99 104 95 64 61 39 42 59 107 87 61 32 24 27 17 10 11 13 10 6 12 33 9
228 226 196 225 245 244 243 222 227 160 196 179 157 178 190 196 80 52 23 58 130 183 178 163 155 131 132 138 126 86 81 69 73 76 65 64 62 53 41 49 65 45 49 30 34 28 7 14 12 13 5 16 21 8
275 258 208 198 204 351 334 291 237 267 118 183 249 101 55 45 109 16 333 147 213 186 127 110 107 116 110 111 108 95 87 94 103 102 95 88 85 89 91 82 75 39 66 52 30 37 14 23 17 15 9 23 17 5
237 237 172 161 170 110 60 4 11 9 2 334 308 87 95 80 233 255 177 167 128 119 125 118 99 101 106 105 99 116 141 147 130 157 139 130 116 89 74 67 66 68 49 111 69 50 40 29 31 17 11 30 18 6
223 206 185 126 108 71 69 347 3 23 343 0 109 111 94 87 11 326 270 175 157 161 128 127 143 153 135 139 127 98 77 63 58 109 104 94 83 62 50 42 36 39 38 27 37 36 43 35 70 38 28 32 26 13
134 151 131 75 86 83 88 65 54 48 5 350 79 119 116 134 298 6 12 357 307 166 154 165 167 142 127 118 130 132 97 76 69 80 98 95 77 71 67 64 66 56 57 47 49 38 24 48 36 34 32 32 28 21
169 216 156 128 125 123 165 128 91 72 79 40 58 109 150 115 90 26 5 331 269 157 172 163 129 117 109 90 83 85 87 83 60 55 81 83 89 99 88 67 62 59 88 98 84 62 48 49 43 38 33 31 29 22
341 124 115 118 138 191 191 192 145 122 121 113 100 350 47 93 123 17 320 288 280 131 109 100 101 94 89 86 89 84 81 86 79 67 65 58 47 26 54 57 70 49 58 66 68 85 80 64 58 49 41 33 30 26